Location: Helsinki
(60.1699°N, 24.9384°E)
Time: 00:09:19
(UTC+02:00)

Vanguard 2 Rocket - Pass Details

Date: 30 September 2023
Orbit: 553 x 3312 km, 32.9° (Epoch: 28 November)

Event Time Altitude Azimuth Distance (km) Brightness Sun altitude
Rises 14:54:07 0° 249° (WSW) 6,911 12.1 23.8°
Reaches altitude 10° 14:59:47 10° 238° (WSW) 6,118 12.3 23.5°
Maximum altitude 15:13:51 25° 193° (SSW) 5,025 12.4 22.6°
Drops below altitude 10° 15:27:08 10° 148° (SSE) 5,742 11.3 21.6°
Sets 15:32:13 0° 136° (SE) 6,420 11.3 21.2°
